User: anonymous   Login
Location: Unspecified
(0.0000°N, 0.0000°E)
Time: 06:51:24
(UTC+01:00)
Language:

Ariane H10 - Orbit

View from above orbital plane
View from above orbital plane
View from above satellite
View from above satellite

Ground track
Ground track

The orbit data is extracted from the following two-line orbital elements,

1 21727U 91067B   17016.20706550 -.00000040  00000-0  25004-3 0  9991
2 21727   4.5147  31.9314 7181473  29.4301 356.6611  2.31887208174428
Epoch (UTC): 16 January 2017 04:58:10
Eccentricity: 0.7181473
inclination: 4.5147°
perigee height: 417 km
apogee height: 35048 km
right ascension of ascending node: 31.9314°
argument of perigee: 29.4301°
revolutions per day: 2.31887208
mean anomaly at epoch: 356.6611°
orbit number at epoch: 17442

The dashed part of the orbit path shows where the satellite is in the earth's shadow,  

DLR